Regional Weather Roundup
Issued by NWS Nashville, TN

Home | Current Version | Previous Version | Text Only | Print | Product List | Glossary On
Versions: 1 2 3 4 5 6 7 8 9 10 11 12 13 14 15 16 17 18 19 20 21 22 23 24 25 26 27 28 29 30 31 32 33 34 35 36 37 38 39 40 41 42 43 44 45 46 47 48 49 50
000
ASUS44 KOHX 271210
RWROHX
MIDDLE TENNESSEE HOURLY WEATHER ROUNDUP
NATIONAL WEATHER SERVICE NASHVILLE TN
700 AM CDT TUE SEP 27 2016

NOTE: "FAIR" INDICATES FEW OR NO CLOUDS BELOW 12,000 FEET WITH
NO SIGNIFICANT WEATHER AND/OR OBSTRUCTIONS TO VISIBILITY.

* THESE REPORTS ARE NOT UNDER NWS QUALITY CONTROL AND MAY NOT
  REPORT WEATHER SUCH AS PRECIPITATION AND FOG.


TNZ005>011-023>034-057-059-062>066-078-080-271300
...NORTHERN MIDDLE TENNESSEE...

CITY           SKY/WX    TMP DP  RH WIND       PRES   REMARKS
CLARKSVILLE    LGT RAIN  46  44  93 CALM      30.05F VSB 1/4
CROSSVILLE     PTCLDY    57  52  83 NE3       30.06S
GALLATIN       CLEAR     48  48 100 CALM      30.08F FOG
DICKSON        CLEAR     48  47  97 CALM      30.05S
NASHVILLE      PTCLDY    56  52  86 CALM      30.06S
WEST NASHVILLE CLOUDY    48  48 100 CALM      30.06S VSB 0
PORTLAND       CLEAR     46  46 100 CALM      30.06S
ROCKWOOD       CLOUDY    60  49  67 N6        30.04
SMYRNA         PTCLDY    54  53  97 CALM      30.06S
SPARTA         CLOUDY    61  55  82 CALM      30.04S
$$
TNZ056-058-060-061-075>077-079-093>097-271300
...SOUTHERN MIDDLE TENNESSEE...

CITY           SKY/WX    TMP DP  RH WIND       PRES   REMARKS
COLUMBIA       CLEAR    N/A N/A N/A CALM      30.03F
FAYETTEVILLE   CLOUDY    63  55  77 N8        30.02F
MCMINNVILLE    MOCLDY    61  54  77 CALM      30.05S
MURFREESBORO   SUNNY     55  53  93 CALM      30.05S
SHELBYVILLE    CLEAR     57  55  94 CALM      30.05F
TULLAHOMA      CLOUDY    61  46  59 N6        30.04F
WINCHESTER     CLOUDY    63  57  82 N3        30.04R
$$


...KEY TO REMARKS...
VSB - VISIBILITY IN MILES
WCI - WIND CHILL INDEX
HX  - HEAT INDEX




USA.gov is the U.S. government's official web portal to all federal, state and local government web resources and services.